LVMGN SAZN-SCEL

Flight info

Callsign LVMGN
Flight time 2h 1m
Altitude 30000
Route KOTOG2C KOTOG DCT TOSET DCT MUPAV DCT EROLO EROLO8A
Aircraft SF50/L-SDGRWY/L

Departure

Time 2026-04-17 10:51
Airport Presidente Perón International Airport (SAZN)

Arrival

Time 2026-04-17 12:52
Airport Comodoro Arturo Merino Benítez International Airport (SCEL)
Time Latitude Longitude Altitude Speed Heading
2026-04-17 10:32 -38.95159 -68.14164 895 ft 0 kts 179°
2026-04-17 10:45 -38.95161 -68.14164 895 ft 0 kts 165°
2026-04-17 10:45 -38.95162 -68.14160 895 ft 0 kts 93°
2026-04-17 10:45 -38.95157 -68.14157 895 ft 1 kts 355°
2026-04-17 10:45 -38.95142 -68.14161 894 ft 3 kts 348°
2026-04-17 10:46 -38.95115 -68.14157 894 ft 4 kts
2026-04-17 10:46 -38.95079 -68.14136 893 ft 5 kts 42°
2026-04-17 10:46 -38.95060 -68.14123 894 ft 3 kts 14°
2026-04-17 10:46 -38.95021 -68.14120 893 ft 6 kts
2026-04-17 10:47 -38.94963 -68.14122 892 ft 9 kts 353°
2026-04-17 10:47 -38.94916 -68.14175 892 ft 8 kts 290°
2026-04-17 10:47 -38.94908 -68.14229 892 ft 1 kts 271°
2026-04-17 10:47 -38.94908 -68.14230 892 ft 0 kts 271°
2026-04-17 10:50 -38.94908 -68.14269 892 ft 25 kts 269°
2026-04-17 10:50 -38.94908 -68.14791 891 ft 89 kts 270°
2026-04-17 10:51 -38.94910 -68.15699 1109 ft 111 kts 269°
2026-04-17 10:51 -38.94955 -68.16725 1476 ft 118 kts 266°
2026-04-17 10:51 -38.94999 -68.17783 1815 ft 123 kts 270°
2026-04-17 10:51 -38.94989 -68.18919 2120 ft 131 kts 280°
2026-04-17 10:52 -38.94468 -68.19883 2419 ft 139 kts 325°
2026-04-17 10:52 -38.93509 -68.20132 2668 ft 155 kts 359°
2026-04-17 10:52 -38.92367 -68.20046 2989 ft 174 kts
2026-04-17 10:52 -38.91099 -68.19971 3306 ft 191 kts
2026-04-17 10:53 -38.89732 -68.19914 3615 ft 205 kts 360°
2026-04-17 10:53 -38.88268 -68.19861 3923 ft 218 kts 360°
2026-04-17 10:53 -38.86700 -68.19805 4234 ft 229 kts 360°
2026-04-17 10:53 -38.85096 -68.19750 4537 ft 237 kts 360°
2026-04-17 10:54 -38.83436 -68.19692 4839 ft 243 kts
2026-04-17 10:54 -38.81720 -68.19632 5145 ft 248 kts
2026-04-17 10:54 -38.79994 -68.19572 5445 ft 252 kts
2026-04-17 10:54 -38.78217 -68.19510 5748 ft 255 kts
2026-04-17 10:55 -38.76444 -68.19448 6050 ft 260 kts
2026-04-17 10:55 -38.74629 -68.19385 6427 ft 264 kts
2026-04-17 10:55 -38.72806 -68.19322 6759 ft 262 kts
2026-04-17 10:55 -38.70995 -68.19259 7059 ft 261 kts
2026-04-17 10:56 -38.69181 -68.19196 7358 ft 260 kts
2026-04-17 10:56 -38.67399 -68.19134 7655 ft 259 kts
2026-04-17 10:56 -38.65593 -68.19072 7955 ft 258 kts
2026-04-17 10:56 -38.63810 -68.19010 8254 ft 257 kts
2026-04-17 10:57 -38.62031 -68.18948 8553 ft 256 kts
2026-04-17 10:57 -38.60264 -68.18887 8850 ft 255 kts
2026-04-17 10:57 -38.58504 -68.18827 9147 ft 255 kts
2026-04-17 10:57 -38.56699 -68.18765 9453 ft 261 kts
2026-04-17 10:58 -38.54894 -68.18703 9753 ft 266 kts
2026-04-17 10:58 -38.53041 -68.18639 10054 ft 269 kts
2026-04-17 10:58 -38.51138 -68.18573 10360 ft 272 kts
2026-04-17 10:58 -38.49258 -68.18508 10658 ft 274 kts
2026-04-17 10:59 -38.47410 -68.19064 10947 ft 275 kts 329°
2026-04-17 10:59 -38.46132 -68.20815 11250 ft 275 kts 300°
2026-04-17 10:59 -38.45538 -68.23117 11550 ft 276 kts 278°
2026-04-17 10:59 -38.45406 -68.25556 11853 ft 277 kts 271°
2026-04-17 11:00 -38.45407 -68.27993 12151 ft 277 kts 269°
2026-04-17 11:00 -38.45450 -68.30463 12452 ft 277 kts 269°
2026-04-17 11:00 -38.45507 -68.32912 12751 ft 277 kts 268°
2026-04-17 11:00 -38.45570 -68.35344 13048 ft 277 kts 268°
2026-04-17 11:01 -38.45636 -68.37811 13348 ft 276 kts 268°
2026-04-17 11:01 -38.45701 -68.40235 13645 ft 275 kts 268°
2026-04-17 11:01 -38.45766 -68.42668 13944 ft 274 kts 268°
2026-04-17 11:01 -38.45832 -68.45106 14243 ft 273 kts 268°
2026-04-17 11:02 -38.45896 -68.47519 14541 ft 272 kts 268°
2026-04-17 11:02 -38.45958 -68.49905 14836 ft 271 kts 268°
2026-04-17 11:02 -38.46022 -68.52324 15136 ft 270 kts 268°
2026-04-17 11:02 -38.46083 -68.54692 15430 ft 269 kts 268°
2026-04-17 11:03 -38.46144 -68.57063 15727 ft 267 kts 268°
2026-04-17 11:03 -38.46205 -68.59440 16025 ft 266 kts 268°
2026-04-17 11:03 -38.46264 -68.61784 16321 ft 264 kts 268°
2026-04-17 11:03 -38.46322 -68.64095 16613 ft 263 kts 268°
2026-04-17 11:04 -38.46380 -68.66436 16915 ft 261 kts 269°
2026-04-17 11:04 -38.46437 -68.68726 17213 ft 260 kts 269°
2026-04-17 11:04 -38.46493 -68.71015 17514 ft 258 kts 269°
2026-04-17 11:04 -38.46548 -68.73289 17814 ft 257 kts 269°
2026-04-17 11:05 -38.46603 -68.75572 18117 ft 255 kts 268°
2026-04-17 11:05 -38.46657 -68.77824 18418 ft 253 kts 268°
2026-04-17 11:05 -38.46710 -68.80041 18716 ft 252 kts 268°
2026-04-17 11:05 -38.46762 -68.82269 19017 ft 250 kts 268°
2026-04-17 11:06 -38.46814 -68.84489 19319 ft 248 kts 268°
2026-04-17 11:06 -38.46864 -68.86655 19616 ft 247 kts 268°
2026-04-17 11:06 -38.46915 -68.88863 19920 ft 245 kts 268°
2026-04-17 11:06 -38.46966 -68.91016 20219 ft 243 kts 269°
2026-04-17 11:07 -38.47015 -68.93141 20515 ft 241 kts 270°
2026-04-17 11:07 -38.47063 -68.95268 20813 ft 240 kts 270°
2026-04-17 11:07 -38.47110 -68.97403 21096 ft 240 kts 269°
2026-04-17 11:07 -38.47151 -68.99545 21374 ft 243 kts 267°
2026-04-17 11:08 -38.47197 -69.01717 21678 ft 245 kts 265°
2026-04-17 11:08 -38.47245 -69.03886 21979 ft 246 kts 264°
2026-04-17 11:08 -38.47291 -69.06046 22281 ft 246 kts 263°
2026-04-17 11:08 -38.47339 -69.08253 22588 ft 247 kts 262°
2026-04-17 11:09 -38.47386 -69.10413 22889 ft 247 kts 261°
2026-04-17 11:09 -38.47433 -69.12618 23196 ft 246 kts 261°
2026-04-17 11:09 -38.47478 -69.14790 23494 ft 246 kts 260°
2026-04-17 11:10 -38.47568 -69.19136 24096 ft 244 kts 260°
2026-04-17 11:10 -38.47611 -69.21263 24392 ft 243 kts 260°
2026-04-17 11:10 -38.47654 -69.23425 24694 ft 241 kts 259°
2026-04-17 11:10 -38.47697 -69.25561 24995 ft 240 kts 259°
2026-04-17 11:11 -38.47738 -69.27666 25293 ft 238 kts 259°
2026-04-17 11:11 -38.47779 -69.29777 25594 ft 236 kts 259°
2026-04-17 11:11 -38.47819 -69.31847 25891 ft 234 kts 258°
2026-04-17 11:11 -38.47858 -69.33901 26189 ft 232 kts 258°
2026-04-17 11:12 -38.47897 -69.35969 26492 ft 229 kts 258°
2026-04-17 11:12 -38.47935 -69.37971 26788 ft 227 kts 258°
2026-04-17 11:12 -38.47972 -69.39967 27085 ft 224 kts 257°
2026-04-17 11:12 -38.48008 -69.41939 27383 ft 221 kts 257°
2026-04-17 11:13 -38.48043 -69.43881 27681 ft 218 kts 257°
2026-04-17 11:13 -38.48078 -69.45793 27978 ft 214 kts 257°
2026-04-17 11:13 -38.48111 -69.47684 28277 ft 211 kts 256°
2026-04-17 11:13 -38.48144 -69.49541 28575 ft 207 kts 256°
2026-04-17 11:14 -38.48175 -69.51333 28868 ft 202 kts 256°
2026-04-17 11:14 -38.48206 -69.53122 29166 ft 198 kts 255°
2026-04-17 11:14 -38.48235 -69.54828 29457 ft 193 kts 255°
2026-04-17 11:14 -38.48263 -69.56512 29751 ft 187 kts 254°
2026-04-17 11:15 -38.48294 -69.58167 29922 ft 189 kts 254°
2026-04-17 11:15 -38.48329 -69.59873 29942 ft 199 kts 255°
2026-04-17 11:15 -38.48365 -69.61703 29944 ft 209 kts 256°
2026-04-17 11:15 -38.48398 -69.63574 29944 ft 219 kts 256°
2026-04-17 11:16 -38.48431 -69.65565 29943 ft 228 kts 257°
2026-04-17 11:16 -38.48465 -69.67641 29943 ft 237 kts 258°
2026-04-17 11:16 -38.48498 -69.69778 29943 ft 245 kts 258°
2026-04-17 11:16 -38.48533 -69.71984 29942 ft 252 kts 258°
2026-04-17 11:17 -38.48567 -69.74248 29942 ft 259 kts 258°
2026-04-17 11:17 -38.48603 -69.76577 29941 ft 265 kts 259°
2026-04-17 11:17 -38.48638 -69.78920 29941 ft 270 kts 259°
2026-04-17 11:17 -38.48674 -69.81330 29942 ft 274 kts 259°
2026-04-17 11:18 -38.48711 -69.83808 29940 ft 279 kts 259°
2026-04-17 11:18 -38.48747 -69.86286 29939 ft 282 kts 259°
2026-04-17 11:18 -38.48783 -69.88804 29936 ft 286 kts 259°
2026-04-17 11:18 -38.48819 -69.91338 29934 ft 288 kts 259°
2026-04-17 11:19 -38.48855 -69.93893 29931 ft 291 kts 260°
2026-04-17 11:19 -38.48890 -69.96483 29927 ft 293 kts 260°
2026-04-17 11:19 -38.48926 -69.99084 29924 ft 295 kts 260°
2026-04-17 11:19 -38.48961 -70.01730 29921 ft 297 kts 260°
2026-04-17 11:20 -38.48996 -70.04352 29919 ft 298 kts 260°
2026-04-17 11:20 -38.49030 -70.07001 29915 ft 299 kts 260°
2026-04-17 11:20 -38.49097 -70.12313 29912 ft 301 kts 260°
2026-04-17 11:21 -38.49162 -70.17694 29912 ft 303 kts 260°
2026-04-17 11:21 -38.49225 -70.23038 29913 ft 304 kts 260°
2026-04-17 11:22 -38.49286 -70.28457 29911 ft 305 kts 260°
2026-04-17 11:22 -38.49344 -70.33849 29911 ft 305 kts 260°
2026-04-17 11:23 -38.49400 -70.39264 29912 ft 305 kts 260°
2026-04-17 11:23 -38.49454 -70.44656 29911 ft 306 kts 260°
2026-04-17 11:24 -38.49505 -70.50085 29911 ft 306 kts 260°
2026-04-17 11:24 -38.49554 -70.55514 29911 ft 306 kts 260°
2026-04-17 11:25 -38.49600 -70.60972 29911 ft 306 kts 260°
2026-04-17 11:25 -38.49643 -70.66361 29912 ft 306 kts 261°
2026-04-17 11:26 -38.49685 -70.71813 29912 ft 306 kts 261°
2026-04-17 11:26 -38.49724 -70.77252 29912 ft 307 kts 261°
2026-04-17 11:27 -38.49760 -70.82664 29912 ft 307 kts 261°
2026-04-17 11:27 -38.49794 -70.88110 29912 ft 306 kts 262°
2026-04-17 11:28 -38.49825 -70.93533 29912 ft 305 kts 262°
2026-04-17 11:28 -38.49854 -70.98917 29912 ft 304 kts 263°
2026-04-17 11:29 -38.49880 -71.04316 29911 ft 303 kts 263°
2026-04-17 11:29 -38.49902 -71.09652 29931 ft 301 kts 263°
2026-04-17 11:30 -38.49923 -71.14985 29954 ft 300 kts 263°
2026-04-17 11:30 -38.49933 -71.17637 29966 ft 299 kts 263°
2026-04-17 11:30 -38.49942 -71.20299 29978 ft 299 kts 263°
2026-04-17 11:31 -38.49950 -71.22926 29990 ft 298 kts 263°
2026-04-17 11:31 -38.49958 -71.25583 30001 ft 298 kts 263°
2026-04-17 11:31 -38.49965 -71.28260 30013 ft 298 kts 263°
2026-04-17 11:31 -38.49971 -71.30895 30018 ft 298 kts 263°
2026-04-17 11:32 -38.49977 -71.33518 30019 ft 298 kts 263°
2026-04-17 11:32 -38.49983 -71.36163 30019 ft 298 kts 263°
2026-04-17 11:32 -38.49987 -71.38808 30019 ft 298 kts 263°
2026-04-17 11:32 -38.49991 -71.41437 30018 ft 298 kts 263°
2026-04-17 11:33 -38.49995 -71.44078 30018 ft 298 kts 263°
2026-04-17 11:33 -38.49998 -71.46729 30018 ft 298 kts 263°
2026-04-17 11:33 -38.50000 -71.49377 30018 ft 298 kts 263°
2026-04-17 11:33 -38.49847 -71.52031 30005 ft 309 kts 279°
2026-04-17 11:34 -38.48729 -71.54427 30014 ft 327 kts 308°
2026-04-17 11:34 -38.46753 -71.55950 30015 ft 343 kts 338°
2026-04-17 11:34 -38.44380 -71.56175 30016 ft 351 kts
2026-04-17 11:34 -38.42015 -71.55438 30022 ft 352 kts 12°
2026-04-17 11:35 -38.37246 -71.54286 30020 ft 352 kts
2026-04-17 11:35 -38.32378 -71.53347 30020 ft 352 kts
2026-04-17 11:36 -38.27544 -71.52437 30020 ft 353 kts
2026-04-17 11:36 -38.22685 -71.51524 30021 ft 353 kts
2026-04-17 11:37 -38.17847 -71.50617 30021 ft 354 kts
2026-04-17 11:37 -38.12993 -71.49708 30022 ft 354 kts
2026-04-17 11:38 -38.08114 -71.48795 30022 ft 355 kts
2026-04-17 11:38 -38.03261 -71.47889 30023 ft 355 kts
2026-04-17 11:39 -37.98387 -71.46980 30023 ft 355 kts
2026-04-17 11:39 -37.93503 -71.46069 30024 ft 355 kts
2026-04-17 11:40 -37.88628 -71.45163 30017 ft 356 kts
2026-04-17 11:40 -37.83754 -71.44257 30015 ft 355 kts
2026-04-17 11:41 -37.78872 -71.43351 30016 ft 354 kts
2026-04-17 11:41 -37.74010 -71.42450 30016 ft 354 kts
2026-04-17 11:42 -37.69165 -71.41554 30017 ft 354 kts
2026-04-17 11:42 -37.64299 -71.40654 30017 ft 354 kts
2026-04-17 11:43 -37.59457 -71.39761 30018 ft 354 kts
2026-04-17 11:43 -37.54592 -71.38864 30025 ft 354 kts
2026-04-17 11:44 -37.49755 -71.37974 30034 ft 354 kts
2026-04-17 11:44 -37.44892 -71.37080 30042 ft 354 kts
2026-04-17 11:45 -37.40068 -71.36194 30047 ft 354 kts
2026-04-17 11:45 -37.35197 -71.35300 30047 ft 354 kts
2026-04-17 11:46 -37.30332 -71.34410 30047 ft 354 kts
2026-04-17 11:46 -37.25485 -71.33524 30049 ft 355 kts
2026-04-17 11:47 -37.20606 -71.32632 30049 ft 355 kts
2026-04-17 11:47 -37.15735 -71.31744 30049 ft 355 kts
2026-04-17 11:48 -37.10848 -71.30853 30050 ft 355 kts
2026-04-17 11:48 -37.05983 -71.29968 30050 ft 356 kts
2026-04-17 11:49 -37.01123 -71.29085 30051 ft 356 kts
2026-04-17 11:49 -36.96219 -71.28196 30051 ft 356 kts
2026-04-17 11:50 -36.91357 -71.27315 30052 ft 356 kts
2026-04-17 11:50 -36.86468 -71.26430 30043 ft 356 kts
2026-04-17 11:51 -36.81577 -71.25545 30043 ft 355 kts
2026-04-17 11:51 -36.76716 -71.24668 30043 ft 355 kts
2026-04-17 11:52 -36.71853 -71.23791 30044 ft 354 kts
2026-04-17 11:52 -36.66991 -71.22916 30044 ft 354 kts
2026-04-17 11:53 -36.62141 -71.22044 30045 ft 354 kts
2026-04-17 11:53 -36.57268 -71.21169 30045 ft 354 kts
2026-04-17 11:54 -36.52414 -71.20297 30046 ft 354 kts
2026-04-17 11:54 -36.47531 -71.19423 30046 ft 354 kts
2026-04-17 11:55 -36.42688 -71.18556 30047 ft 355 kts
2026-04-17 11:55 -36.37802 -71.17683 30047 ft 355 kts
2026-04-17 11:56 -36.32954 -71.16818 30048 ft 355 kts
2026-04-17 11:56 -36.28061 -71.15946 30048 ft 355 kts
2026-04-17 11:57 -36.23185 -71.15078 30049 ft 355 kts
2026-04-17 11:57 -36.18327 -71.14214 30049 ft 355 kts
2026-04-17 11:58 -36.13430 -71.13345 30050 ft 356 kts
2026-04-17 11:58 -36.08534 -71.12476 30050 ft 356 kts
2026-04-17 11:59 -36.03616 -71.11605 30051 ft 356 kts
2026-04-17 11:59 -35.98727 -71.10741 30051 ft 356 kts
2026-04-17 12:00 -35.93850 -71.09879 30052 ft 356 kts
2026-04-17 12:00 -35.88948 -71.09014 30046 ft 357 kts
2026-04-17 12:01 -35.84060 -71.08152 30043 ft 356 kts
2026-04-17 12:01 -35.79175 -71.07292 30043 ft 355 kts
2026-04-17 12:02 -35.74299 -71.06435 30044 ft 355 kts
2026-04-17 12:02 -35.69402 -71.05576 30045 ft 355 kts
2026-04-17 12:03 -35.64538 -71.04723 30045 ft 355 kts
2026-04-17 12:03 -35.59669 -71.03870 30046 ft 355 kts
2026-04-17 12:04 -35.54808 -71.03020 30046 ft 355 kts
2026-04-17 12:04 -35.49911 -71.02164 30047 ft 355 kts
2026-04-17 12:05 -35.45024 -71.01311 30047 ft 356 kts
2026-04-17 12:05 -35.40160 -71.00463 30048 ft 356 kts
2026-04-17 12:06 -35.35253 -70.99609 30048 ft 357 kts
2026-04-17 12:06 -35.30332 -70.98753 30049 ft 358 kts
2026-04-17 12:07 -35.25433 -70.97903 30049 ft 358 kts
2026-04-17 12:07 -35.20483 -70.97044 30050 ft 359 kts
2026-04-17 12:08 -35.15574 -70.96194 30051 ft 360 kts
2026-04-17 12:08 -35.10612 -70.95335 30051 ft 360 kts
2026-04-17 12:09 -35.08144 -70.95087 30005 ft 351 kts 353°
2026-04-17 12:09 -35.05799 -70.95692 29498 ft 348 kts 335°
2026-04-17 12:09 -35.03717 -70.97095 28986 ft 338 kts 319°
2026-04-17 12:09 -35.01910 -70.98875 28392 ft 334 kts 313°
2026-04-17 12:10 -35.00198 -71.00758 27776 ft 331 kts 311°
2026-04-17 12:10 -34.98528 -71.02650 27161 ft 328 kts 311°
2026-04-17 12:10 -34.96883 -71.04528 26546 ft 326 kts 311°
2026-04-17 12:10 -34.95246 -71.06400 25928 ft 323 kts 312°
2026-04-17 12:11 -34.93612 -71.08270 25307 ft 320 kts 312°
2026-04-17 12:11 -34.92016 -71.10096 24694 ft 318 kts 312°
2026-04-17 12:11 -34.90403 -71.11939 24070 ft 315 kts 312°
2026-04-17 12:12 -34.87254 -71.15538 22819 ft 311 kts 313°
2026-04-17 12:12 -34.85669 -71.17347 22182 ft 308 kts 313°
2026-04-17 12:12 -34.84117 -71.19118 21553 ft 306 kts 313°
2026-04-17 12:12 -34.82591 -71.20857 20932 ft 304 kts 313°
2026-04-17 12:13 -34.81044 -71.22620 20299 ft 302 kts 313°
2026-04-17 12:13 -34.79522 -71.24355 19672 ft 301 kts 314°
2026-04-17 12:13 -34.78006 -71.26080 19044 ft 299 kts 314°
2026-04-17 12:13 -34.76504 -71.27788 18419 ft 297 kts 314°
2026-04-17 12:14 -34.75010 -71.29488 17793 ft 295 kts 314°
2026-04-17 12:14 -34.73527 -71.31174 17169 ft 294 kts 314°
2026-04-17 12:14 -34.72040 -71.32863 16539 ft 292 kts 314°
2026-04-17 12:14 -34.70563 -71.34540 15911 ft 290 kts 314°
2026-04-17 12:15 -34.69101 -71.36200 15285 ft 288 kts 315°
2026-04-17 12:15 -34.67659 -71.37836 14664 ft 286 kts 315°
2026-04-17 12:15 -34.66009 -71.39162 14011 ft 288 kts 340°
2026-04-17 12:15 -34.64043 -71.39436 13381 ft 287 kts
2026-04-17 12:16 -34.62101 -71.39003 12755 ft 285 kts 15°
2026-04-17 12:16 -34.60249 -71.38287 12135 ft 282 kts 19°
2026-04-17 12:16 -34.58413 -71.37458 11505 ft 280 kts 21°
2026-04-17 12:16 -34.56636 -71.36610 11122 ft 271 kts 21°
2026-04-17 12:17 -34.54916 -71.35775 10869 ft 265 kts 21°
2026-04-17 12:17 -34.53210 -71.34940 10617 ft 265 kts 21°
2026-04-17 12:17 -34.51482 -71.34091 10365 ft 266 kts 21°
2026-04-17 12:17 -34.49776 -71.33253 10119 ft 271 kts 21°
2026-04-17 12:18 -34.48006 -71.32383 9986 ft 272 kts 21°
2026-04-17 12:18 -34.46283 -71.31536 9973 ft 268 kts 21°
2026-04-17 12:18 -34.44560 -71.30689 9972 ft 265 kts 21°
2026-04-17 12:18 -34.42874 -71.29862 9973 ft 263 kts 21°
2026-04-17 12:19 -34.41187 -71.29034 9973 ft 261 kts 21°
2026-04-17 12:19 -34.39508 -71.28210 9973 ft 260 kts 21°
2026-04-17 12:19 -34.37828 -71.27386 9975 ft 259 kts 21°
2026-04-17 12:19 -34.36161 -71.26569 9978 ft 258 kts 21°
2026-04-17 12:20 -34.34509 -71.25758 9980 ft 258 kts 21°
2026-04-17 12:20 -34.32838 -71.24940 9983 ft 257 kts 21°
2026-04-17 12:20 -34.31204 -71.24139 9985 ft 257 kts 21°
2026-04-17 12:20 -34.29532 -71.23322 9987 ft 257 kts 21°
2026-04-17 12:21 -34.27893 -71.22520 9989 ft 257 kts 21°
2026-04-17 12:21 -34.26240 -71.21712 9990 ft 257 kts 21°
2026-04-17 12:21 -34.24574 -71.20898 9991 ft 257 kts 21°
2026-04-17 12:21 -34.22925 -71.20091 9992 ft 257 kts 21°
2026-04-17 12:22 -34.21286 -71.19291 9993 ft 257 kts 21°
2026-04-17 12:22 -34.19617 -71.18477 9993 ft 257 kts 21°
2026-04-17 12:22 -34.17952 -71.17664 9993 ft 257 kts 21°
2026-04-17 12:22 -34.16304 -71.16860 9994 ft 257 kts 21°
2026-04-17 12:23 -34.14643 -71.16050 9995 ft 257 kts 21°
2026-04-17 12:23 -34.12995 -71.15247 9996 ft 257 kts 21°
2026-04-17 12:23 -34.11341 -71.14441 9997 ft 257 kts 21°
2026-04-17 12:23 -34.09687 -71.13636 9998 ft 257 kts 21°
2026-04-17 12:24 -34.08050 -71.12839 10000 ft 257 kts 21°
2026-04-17 12:24 -34.06387 -71.12030 10001 ft 257 kts 21°
2026-04-17 12:24 -34.04744 -71.11231 10001 ft 257 kts 21°
2026-04-17 12:24 -34.03093 -71.10429 10001 ft 257 kts 21°
2026-04-17 12:25 -34.01429 -71.09619 10001 ft 257 kts 21°
2026-04-17 12:25 -33.99773 -71.08816 10001 ft 257 kts 21°
2026-04-17 12:25 -33.98115 -71.08010 10001 ft 257 kts 21°
2026-04-17 12:25 -33.96471 -71.07213 10001 ft 257 kts 21°
2026-04-17 12:26 -33.94818 -71.06410 10001 ft 257 kts 21°
2026-04-17 12:26 -33.93169 -71.05611 10001 ft 257 kts 21°
2026-04-17 12:26 -33.91497 -71.04800 10001 ft 257 kts 21°
2026-04-17 12:26 -33.89842 -71.03998 10001 ft 257 kts 21°
2026-04-17 12:27 -33.88192 -71.03199 10000 ft 257 kts 21°
2026-04-17 12:27 -33.86527 -71.02393 10000 ft 257 kts 21°
2026-04-17 12:27 -33.84877 -71.01594 10000 ft 256 kts 21°
2026-04-17 12:27 -33.83221 -71.00791 10000 ft 256 kts 21°
2026-04-17 12:28 -33.81572 -70.99992 10000 ft 256 kts 21°
2026-04-17 12:28 -33.79942 -70.99204 10000 ft 256 kts 21°
2026-04-17 12:28 -33.78273 -70.98398 10000 ft 256 kts 21°
2026-04-17 12:28 -33.76640 -70.97610 10000 ft 256 kts 21°
2026-04-17 12:29 -33.74978 -70.96807 10000 ft 255 kts 21°
2026-04-17 12:29 -33.73338 -70.96016 10000 ft 255 kts 21°
2026-04-17 12:29 -33.71693 -70.95222 10000 ft 255 kts 21°
2026-04-17 12:29 -33.70051 -70.94430 10001 ft 255 kts 21°
2026-04-17 12:30 -33.68409 -70.93639 9894 ft 253 kts 21°
2026-04-17 12:30 -33.66807 -70.92866 9719 ft 249 kts 21°
2026-04-17 12:30 -33.65197 -70.92091 9542 ft 246 kts 21°
2026-04-17 12:30 -33.63635 -70.91340 9368 ft 244 kts 21°
2026-04-17 12:31 -33.62063 -70.90583 9201 ft 242 kts 21°
2026-04-17 12:31 -33.60498 -70.89831 9049 ft 239 kts 21°
2026-04-17 12:31 -33.58968 -70.89095 8899 ft 237 kts 21°
2026-04-17 12:31 -33.57428 -70.88357 8747 ft 236 kts 20°
2026-04-17 12:32 -33.55974 -70.87470 8596 ft 235 kts 29°
2026-04-17 12:32 -33.54577 -70.86459 8445 ft 234 kts 31°
2026-04-17 12:32 -33.53194 -70.85439 8296 ft 234 kts 31°
2026-04-17 12:32 -33.51814 -70.84423 8146 ft 233 kts 31°
2026-04-17 12:33 -33.50439 -70.83411 8020 ft 231 kts 31°
2026-04-17 12:33 -33.49066 -70.82401 8001 ft 226 kts 31°
2026-04-17 12:33 -33.47757 -70.81439 7999 ft 221 kts 31°
2026-04-17 12:33 -33.46448 -70.80477 8000 ft 217 kts 31°
2026-04-17 12:34 -33.45183 -70.79548 8000 ft 214 kts 31°
2026-04-17 12:34 -33.43918 -70.78619 8000 ft 211 kts 31°
2026-04-17 12:34 -33.42679 -70.77709 8000 ft 210 kts 31°
2026-04-17 12:34 -33.41433 -70.76794 8000 ft 208 kts 31°
2026-04-17 12:35 -33.40207 -70.75896 7952 ft 210 kts 31°
2026-04-17 12:35 -33.38941 -70.74967 7803 ft 215 kts 31°
2026-04-17 12:35 -33.37661 -70.74030 7656 ft 219 kts 31°
2026-04-17 12:35 -33.36343 -70.73064 7507 ft 222 kts 31°
2026-04-17 12:37 -33.26194 -70.69640 6461 ft 227 kts 354°
2026-04-17 12:37 -33.24618 -70.69830 6311 ft 228 kts 354°
2026-04-17 12:38 -33.23050 -70.70020 6162 ft 228 kts 354°
2026-04-17 12:38 -33.21497 -70.70208 6025 ft 222 kts 354°
2026-04-17 12:38 -33.20003 -70.70389 6000 ft 212 kts 354°
2026-04-17 12:38 -33.18633 -70.70845 5995 ft 203 kts 324°
2026-04-17 12:39 -33.17702 -70.72051 5994 ft 196 kts 322°
2026-04-17 12:39 -33.16540 -70.72874 6000 ft 191 kts 330°
2026-04-17 12:39 -33.15413 -70.73692 5999 ft 187 kts 327°
2026-04-17 12:39 -33.14328 -70.74535 5881 ft 189 kts 327°
2026-04-17 12:40 -33.13222 -70.75414 5732 ft 192 kts 326°
2026-04-17 12:40 -33.12100 -70.76311 5583 ft 195 kts 326°
2026-04-17 12:40 -33.10970 -70.77214 5434 ft 196 kts 326°
2026-04-17 12:40 -33.09833 -70.78123 5284 ft 198 kts 326°
2026-04-17 12:41 -33.08695 -70.79033 5180 ft 188 kts 326°
2026-04-17 12:41 -33.07685 -70.79839 5021 ft 166 kts 326°
2026-04-17 12:41 -33.06763 -70.80575 4815 ft 156 kts 326°
2026-04-17 12:41 -33.05953 -70.81394 4596 ft 151 kts 303°
2026-04-17 12:42 -33.05794 -70.82572 4459 ft 143 kts 258°
2026-04-17 12:42 -33.06345 -70.83495 4345 ft 138 kts 213°
2026-04-17 12:42 -33.07251 -70.83697 4235 ft 135 kts 169°
2026-04-17 12:42 -33.08080 -70.83233 4131 ft 128 kts 149°
2026-04-17 12:43 -33.08823 -70.82690 4026 ft 121 kts 148°
2026-04-17 12:43 -33.09531 -70.82213 3999 ft 115 kts 156°
2026-04-17 12:43 -33.10286 -70.81915 4000 ft 115 kts 167°
2026-04-17 12:43 -33.11076 -70.81749 4000 ft 114 kts 173°
2026-04-17 12:44 -33.11870 -70.81652 4001 ft 116 kts 175°
2026-04-17 12:44 -33.12676 -70.81589 4002 ft 118 kts 177°
2026-04-17 12:44 -33.13505 -70.81543 4002 ft 119 kts 178°
2026-04-17 12:44 -33.14336 -70.81506 4001 ft 120 kts 178°
2026-04-17 12:45 -33.15178 -70.81473 4001 ft 121 kts 178°
2026-04-17 12:45 -33.16027 -70.81442 4002 ft 123 kts 178°
2026-04-17 12:45 -33.16882 -70.81413 4001 ft 124 kts 178°
2026-04-17 12:45 -33.17741 -70.81383 4001 ft 125 kts 178°
2026-04-17 12:46 -33.18615 -70.81353 4001 ft 125 kts 178°
2026-04-17 12:46 -33.19477 -70.81251 4000 ft 125 kts 177°
2026-04-17 12:46 -33.20355 -70.81224 4001 ft 126 kts 179°
2026-04-17 12:46 -33.21233 -70.81197 4001 ft 126 kts 178°
2026-04-17 12:47 -33.22112 -70.81160 4001 ft 126 kts 178°
2026-04-17 12:47 -33.22982 -70.81119 4001 ft 126 kts 178°
2026-04-17 12:47 -33.23856 -70.81075 4001 ft 126 kts 178°
2026-04-17 12:47 -33.24741 -70.81029 3960 ft 130 kts 178°
2026-04-17 12:48 -33.25673 -70.80979 3808 ft 138 kts 178°
2026-04-17 12:48 -33.26637 -70.80928 3635 ft 137 kts 177°
2026-04-17 12:48 -33.27576 -70.80878 3459 ft 134 kts 177°
2026-04-17 12:48 -33.28497 -70.80828 3284 ft 132 kts 177°
2026-04-17 12:49 -33.29345 -70.80783 3166 ft 108 kts 178°
2026-04-17 12:49 -33.30043 -70.80745 3005 ft 97 kts 177°
2026-04-17 12:49 -33.30709 -70.80710 2869 ft 95 kts 178°
2026-04-17 12:49 -33.31367 -70.80674 2736 ft 94 kts 177°
2026-04-17 12:50 -33.32019 -70.80639 2607 ft 93 kts 178°
2026-04-17 12:50 -33.32666 -70.80605 2479 ft 93 kts 177°
2026-04-17 12:50 -33.33313 -70.80570 2353 ft 93 kts 178°
2026-04-17 12:50 -33.33960 -70.80527 2226 ft 92 kts 175°
2026-04-17 12:51 -33.34607 -70.80473 2109 ft 90 kts 176°
2026-04-17 12:51 -33.35228 -70.80440 1987 ft 90 kts 178°
2026-04-17 12:51 -33.35851 -70.80412 1887 ft 89 kts 178°
2026-04-17 12:51 -33.36472 -70.80376 1755 ft 89 kts 178°
2026-04-17 12:52 -33.37084 -70.80364 1642 ft 83 kts 178°
2026-04-17 12:52 -33.37632 -70.80336 1566 ft 73 kts 177°
2026-04-17 12:52 -33.38076 -70.80319 1560 ft 55 kts 181°
2026-04-17 12:52 -33.38411 -70.80304 1559 ft 42 kts 178°
2026-04-17 12:53 -33.38672 -70.80290 1559 ft 32 kts 177°
2026-04-17 12:53 -33.38871 -70.80283 1559 ft 25 kts 179°
2026-04-17 12:53 -33.39031 -70.80273 1559 ft 21 kts 176°
2026-04-17 12:53 -33.39165 -70.80260 1559 ft 17 kts 169°
2026-04-17 12:54 -33.39280 -70.80223 1559 ft 16 kts 158°
2026-04-17 12:54 -33.39381 -70.80159 1559 ft 16 kts 149°
2026-04-17 12:54 -33.39476 -70.80087 1559 ft 16 kts 143°
2026-04-17 12:54 -33.39532 -70.79974 1559 ft 16 kts 93°
2026-04-17 12:55 -33.39578 -70.79877 1559 ft 14 kts 175°
2026-04-17 12:55 -33.39671 -70.79870 1559 ft 13 kts 177°
2026-04-17 12:55 -33.39762 -70.79864 1559 ft 12 kts 167°
2026-04-17 12:55 -33.39809 -70.79784 1559 ft 12 kts 144°
2026-04-17 12:56 -33.39877 -70.79748 1559 ft 8 kts 136°
2026-04-17 12:56 -33.39938 -70.79762 1559 ft 10 kts 192°
2026-04-17 12:56 -33.40005 -70.79745 1559 ft 9 kts 106°
2026-04-17 12:56 -33.40006 -70.79725 1559 ft 0 kts 88°